W4KAB Weather Reports


time (UTC)temp
F
wind
direction
speed
knots
gust
knots
rain 1hr
in
rain 24hr
in
rain mn
in
humidity
%
barometer
mb
20260906083151 69 46 0.0 0.0 0.00 0.00 0.00 99 1014.2
20260906082646 69 248 0.0 0.0 0.00 0.00 0.00 99 1014.0
20260906082142 69 249 0.0 0.0 0.00 0.00 0.00 99 1014.0
20260906081638 69 257 0.0 0.0 0.00 0.00 0.00 99 1014.1
20260906081133 69 254 0.0 0.0 0.00 0.00 0.00 99 1014.0
20260906080629 69 258 0.0 0.0 0.00 0.00 0.00 99 1014.1
20260906080125 69 255 0.0 0.0 0.00 0.00 0.00 99 1014.1
20260906075624 69 258 0.0 0.0 0.00 0.00 0.00 99 1014.2
20260906075119 69 239 0.0 0.0 0.00 0.00 0.00 99 1014.2
20260906074615 69 239 0.0 0.0 0.00 0.00 0.00 99 1014.1
20260906074113 69 258 0.0 0.0 0.00 0.00 0.00 99 1014.0
20260906073608 69 272 0.0 0.0 0.00 0.00 0.00 99 1013.9
20260906073104 69 253 0.0 0.0 0.00 0.00 0.00 99 1013.9
20260906072558 69 252 0.0 0.0 0.00 0.00 0.00 99 1013.5
20260906072055 69 244 0.0 0.0 0.00 0.00 0.00 99 1013.4
20260906071551 69 253 0.0 0.0 0.00 0.00 0.00 99 1013.5
20260906071045 69 251 0.0 0.0 0.00 0.00 0.00 99 1013.8
20260906070542 69 258 0.0 0.0 0.00 0.00 0.00 99 1014.0
20260906070038 69 258 0.0 0.0 0.00 0.00 0.00 99 1014.0
20260906065537 69 260 0.0 0.0 0.00 0.00 0.00 99 1014.4
20260906065033 70 305 0.0 0.0 0.00 0.00 0.00 99 1014.2
20260906064528 70 246 0.0 0.0 0.00 0.00 0.00 99 1014.4
20260906064023 70 246 0.0 0.0 0.00 0.00 0.00 99 1014.5
20260906063518 70 239 0.0 0.0 0.00 0.00 0.00 99 1014.5
20260906063014 70 259 0.0 0.0 0.00 0.00 0.00 99 1014.8
20260906062508 70 257 0.0 0.0 0.00 0.00 0.00 99 1014.7
20260906061958 70 258 0.0 0.0 0.00 0.00 0.00 99 1014.7
20260906061454 70 250 0.0 0.0 0.00 0.00 0.00 99 1014.8
20260906060954 70 248 0.0 0.0 0.00 0.00 0.00 99 1015.0
20260906060451 70 248 0.0 0.0 0.00 0.00 0.00 99 1014.9
20260906055947 70 256 0.0 0.0 0.00 0.00 0.00 99 1014.8
20260906055443 70 256 0.0 0.0 0.00 0.00 0.00 99 1015.0
20260906054938 70 251 0.0 0.0 0.00 0.00 0.00 99 1014.9
20260906054432 71 255 0.0 0.0 0.00 0.00 0.00 99 1015.0
20260906053928 70 249 0.0 0.0 0.00 0.00 0.00 99 1014.7
20260906053424 70 237 0.0 0.0 0.00 0.00 0.00 99 1014.9
20260906052920 70 237 0.0 0.0 0.00 0.00 0.00 99 1014.8
20260906052416 70 215 0.0 0.0 0.00 0.00 0.00 99 1014.9
20260906051913 71 205 0.0 0.0 0.00 0.00 0.00 99 1014.9
20260906051412 71 249 0.0 0.0 0.00 0.00 0.00 99 1015.1
20260906050908 71 250 0.0 0.0 0.00 0.00 0.00 99 1014.8
20260906050403 71 249 0.0 0.0 0.00 0.00 0.00 99 1015.1
20260906045901 71 249 0.0 0.0 0.00 0.00 0.00 99 1015.1
20260906045355 71 254 0.0 0.0 0.00 0.00 0.00 99 1015.1
20260906044852 71 256 0.0 0.0 0.00 0.00 0.00 99 1015.0
20260906044352 71 249 0.0 0.0 0.00 0.00 0.00 99 1015.0
20260906043847 71 255 0.0 0.0 0.00 0.00 0.00 98 1015.2
20260906043344 71 277 0.0 0.0 0.00 0.00 0.00 98 1015.2
20260906042839 71 251 0.0 0.0 0.00 0.00 0.00 98 1015.4
20260906042337 71 257 0.0 0.0 0.00 0.00 0.00 98 1015.3
20260906041833 72 251 0.0 0.0 0.00 0.00 0.00 98 1015.2
20260906041329 71 245 0.0 0.0 0.00 0.00 0.00 98 1015.0
20260906040828 71 205 0.0 0.0 0.00 0.00 0.00 98 1015.1
20260906040324 72 245 0.0 0.0 0.00 0.00 0.00 98 1015.2
20260906035819 72 253 0.0 0.0 0.00 0.01 0.01 98 1015.2
20260906035314 72 255 0.0 0.0 0.00 0.01 0.01 98 1015.1
20260906034809 72 255 0.0 0.0 0.00 0.01 0.01 98 1015.1
20260906034304 72 249 0.0 0.0 0.00 0.01 0.01 97 1015.1
20260906033800 72 248 0.0 0.0 0.00 0.01 0.01 98 1015.5
20260906033259 72 229 0.0 0.0 0.00 0.01 0.01 97 1015.5
20260906032756 72 254 0.0 0.0 0.00 0.01 0.01 97 1015.4
20260906032256 72 251 0.0 0.0 0.00 0.01 0.01 97 1015.2
20260906031751 72 261 0.0 0.0 0.00 0.01 0.01 97 1015.2
20260906031247 72 237 0.0 0.0 0.00 0.01 0.01 97 1015.4
20260906030746 72 246 0.0 0.0 0.00 0.01 0.01 97 1015.5
20260906030242 73 253 0.0 0.0 0.00 0.01 0.01 97 1015.2
20260906025741 73 248 0.0 0.0 0.00 0.01 0.01 96 1015.4
20260906025235 73 242 0.0 0.0 0.00 0.01 0.01 96 1015.2
20260906024734 73 257 0.0 0.0 0.00 0.01 0.01 96 1015.1
20260906024234 73 273 0.0 0.0 0.00 0.01 0.01 96 1015.1
20260906023730 72 256 0.0 0.0 0.00 0.01 0.01 96 1014.9
20260906023225 73 212 0.0 0.0 0.00 0.01 0.01 97 1015.1
20260906022720 73 252 0.0 0.0 0.00 0.01 0.01 97 1015.2
20260906022215 73 255 0.0 0.0 0.00 0.01 0.01 97 1015.0
20260906021712 73 252 0.0 0.0 0.00 0.01 0.01 97 1015.0
20260906021210 73 252 0.0 0.0 0.00 0.01 0.01 96 1015.0
20260906020705 73 260 0.0 0.0 0.00 0.01 0.01 96 1014.9
20260906020200 73 248 0.0 0.0 0.00 0.01 0.01 96 1014.9
20260906015654 73 243 0.0 0.0 0.00 0.01 0.01 96 1015.0
20260906015153 73 255 0.0 0.0 0.00 0.01 0.01 95 1014.9
20260906014653 73 248 0.0 0.0 0.00 0.01 0.01 95 1014.9
20260906014149 73 258 0.0 0.0 0.00 0.01 0.01 96 1014.8
20260906013645 73 258 0.0 0.0 0.00 0.01 0.01 96 1014.8
20260906013140 73 246 0.0 0.0 0.00 0.01 0.01 96 1014.8
20260906012639 73 242 0.0 0.0 0.00 0.01 0.01 95 1014.9
20260906012134 74 259 0.0 0.0 0.00 0.01 0.01 94 1014.6
20260906011630 74 251 0.0 0.0 0.00 0.01 0.01 94 1014.6
20260906011125 74 257 0.0 0.0 0.00 0.01 0.01 93 1014.7
20260906010620 74 258 0.0 0.0 0.00 0.01 0.01 93 1014.5
20260906010116 74 258 0.0 0.0 0.00 0.01 0.01 92 1014.5
20260906005610 75 258 0.0 0.0 0.00 0.01 0.01 92 1014.6
20260906005109 75 253 0.0 0.0 0.00 0.01 0.01 92 1014.4
20260906004608 75 252 0.0 0.0 0.00 0.01 0.01 92 1014.3
20260906004103 75 253 0.0 0.0 0.00 0.01 0.01 91 1014.5
20260906003559 75 253 0.0 0.0 0.00 0.01 0.01 91 1014.3
20260906003054 75 255 0.0 0.0 0.00 0.01 0.01 90 1014.1
20260906002549 76 257 0.0 0.0 0.00 0.01 0.01 89 1013.9
20260906002043 76 257 0.0 0.0 0.00 0.01 0.01 89 1013.9
20260906001539 77 257 0.0 0.0 0.00 0.01 0.01 88 1013.9
20260906001033 77 257 0.0 0.0 0.00 0.01 0.01 88 1013.6
20260906000529 77 258 0.0 0.0 0.00 0.01 0.01 86 1013.6
20260906000024 77 258 0.0 0.0 0.00 0.01 0.01 86 1013.5
20260905235518 77 244 0.0 0.0 0.00 0.01 0.01 86 1013.3
20260905235013 78 243 0.0 0.0 0.00 0.01 0.01 86 1013.5
20260905234508 78 243 0.0 0.0 0.00 0.01 0.01 86 1013.6
20260905234003 79 217 0.0 0.0 0.00 0.01 0.01 85 1013.4
20260905233458 79 216 0.0 0.0 0.00 0.01 0.01 83 1013.3
20260905232956 79 141 0.0 0.0 0.00 0.01 0.01 83 1013.4
20260905232453 80 216 0.0 0.0 0.00 0.01 0.01 82 1013.5
20260905231949 80 203 0.0 0.0 0.00 0.01 0.01 81 1013.4
20260905231444 80 241 0.0 0.0 0.00 0.01 0.01 80 1013.5
20260905230940 81 198 0.0 0.0 0.07 0.01 0.01 80 1013.3
20260905230438 81 220 0.0 0.0 0.07 0.01 0.01 79 1013.3
20260905225931 81 153 0.0 0.0 0.00 0.00 0.00 78 1013.6
20260905225427 82 162 0.0 0.0 0.00 0.00 0.00 77 1013.3
20260905224922 82 215 0.0 0.0 0.00 0.00 0.00 76 1013.4
20260905224417 82 172 0.0 0.0 0.00 0.00 0.00 76 1013.5
20260905223916 83 190 0.0 0.0 0.00 0.00 0.00 74 1013.8
20260905223415 84 252 0.0 0.0 0.00 0.00 0.00 71 1013.6
20260905222909 85 252 0.0 0.0 0.00 0.00 0.00 71 1013.4
20260905222408 85 229 0.0 0.0 0.00 0.00 0.00 70 1013.3
20260905221904 85 263 0.0 0.0 0.00 0.00 0.00 68 1013.4
20260905221401 86 233 0.0 0.0 0.00 0.00 0.00 67 1013.3
20260905220856 87 221 0.0 0.0 0.00 0.00 0.00 64 1013.3
20260905220352 89 238 0.0 0.0 0.00 0.00 0.00 64 1013.5
20260905215851 90 246 0.9 0.9 0.00 0.00 0.00 59 1013.4
20260905215347 91 261 0.0 0.0 0.00 0.00 0.00 63 1013.6
20260905214844 89 264 0.0 0.0 0.00 0.00 0.00 68 1014.0
20260905214338 89 264 0.0 0.0 0.00 0.00 0.00 67 1013.5
20260905213828 88 254 0.0 0.9 0.00 0.00 0.00 62 1013.6
20260905213324 87 262 0.9 0.9 0.00 0.00 0.00 61 1013.6
20260905212819 88 253 1.7 2.6 0.00 0.00 0.00 63 1013.6
20260905212318 87 303 0.9 1.7 0.00 0.00 0.00 63 1013.8
20260905211813 88 263 0.9 0.9 0.00 0.00 0.00 64 1013.6
20260905211308 87 224 0.9 0.9 0.00 0.00 0.00 63 1013.6
20260905210805 85 255 0.0 0.9 0.00 0.00 0.00 68 1013.6
20260905210304 84 251 0.9 0.9 0.00 0.00 0.00 68 1013.5
20260905205803 84 267 0.0 0.9 0.00 0.00 0.00 69 1013.4
20260905205258 82 285 0.9 0.9 0.00 0.00 0.00 70 1013.4
20260905204757 82 258 1.7 2.6 0.00 0.00 0.00 71 1013.5
20260905204254 82 256 0.9 1.7 0.00 0.00 0.00 71 1013.4
20260905203752 82 250 1.7 1.7 0.00 0.00 0.00 72 1013.6
20260905203248 82 259 0.9 0.9 0.00 0.00 0.00 72 1013.4
20260905202744 81 251 0.9 1.7 0.00 0.00 0.00 73 1013.9
20260905202238 82 255 0.9 0.9 0.00 0.00 0.00 72 1013.6
20260905201734 82 248 0.0 0.0 0.00 0.00 0.00 71 1013.8
20260905201229 82 293 1.7 1.7 0.00 0.00 0.00 69 1013.8
20260905200724 82 244 1.7 1.7 0.00 0.00 0.00 71 1013.8
20260905200220 82 291 0.0 0.0 0.00 0.00 0.00 73 1014.2
20260905195718 82 261 0.0 0.9 0.00 0.00 0.00 71 1013.9
20260905195212 82 263 0.9 0.9 0.00 0.00 0.00 69 1013.9
20260905194708 82 249 0.0 0.9 0.00 0.00 0.00 69 1013.8
20260905194208 82 275 0.0 0.0 0.00 0.00 0.00 72 1013.9
20260905193702 82 262 0.0 0.0 0.00 0.00 0.00 72 1014.0
20260905193157 82 263 0.0 0.0 0.00 0.00 0.00 72 1014.1
20260905192653 82 265 0.0 0.0 0.00 0.00 0.00 71 1014.1
20260905192149 82 246 0.9 0.9 0.00 0.00 0.00 67 1014.0
20260905191648 82 241 1.7 1.7 0.00 0.00 0.00 67 1013.8
20260905191146 82 246 0.9 1.7 0.00 0.00 0.00 68 1013.9
20260905190645 82 315 0.9 0.9 0.00 0.00 0.00 66 1013.8
20260905190144 82 246 1.7 1.7 0.00 0.00 0.00 68 1013.8
20260905185643 81 250 0.0 0.0 0.00 0.00 0.00 70 1013.6
20260905185138 81 271 0.0 0.0 0.00 0.00 0.00 68 1013.9
20260905184632 81 219 0.0 0.0 0.00 0.00 0.00 73 1014.0
20260905184131 81 219 0.0 0.0 0.00 0.00 0.00 73 1014.0
20260905183630 80 217 2.6 4.3 0.00 0.00 0.00 69 1014.2
20260905183126 80 275 0.0 0.9 0.00 0.00 0.00 75 1014.5
20260905182625 80 247 0.9 0.9 0.00 0.00 0.00 72 1014.1
20260905182125 80 228 0.9 0.9 0.00 0.00 0.00 73 1015.0
20260905181620 80 261 0.9 0.9 0.00 0.00 0.00 72 1014.5
20260905181119 81 229 0.0 0.9 0.00 0.00 0.00 70 1014.3
20260905180614 82 263 0.0 0.0 0.00 0.00 0.00 70 1014.6
20260905180110 82 263 0.0 0.0 0.00 0.00 0.00 69 1014.8
20260905175609 82 263 0.0 0.0 0.00 0.00 0.00 76 1015.4
20260905175104 82 262 0.9 0.9 0.00 0.00 0.00 74 1015.8
20260905174600 82 262 0.0 0.0 0.00 0.00 0.00 73 1016.0
20260905174055 83 265 0.9 0.9 0.00 0.00 0.00 72 1016.2
20260905173551 84 68 0.0 0.0 0.00 0.00 0.00 73 1016.2
20260905173047 86 73 1.7 1.7 0.00 0.00 0.00 69 1016.3
20260905172545 87 68 0.0 0.0 0.00 0.00 0.00 65 1016.1
20260905172040 88 216 0.0 0.0 0.00 0.00 0.00 70 1016.1
20260905171537 90 274 0.9 0.9 0.00 0.00 0.00 69 1015.2
20260905171033 90 238 0.0 0.0 0.00 0.00 0.00 67 1015.3
20260905170529 91 244 0.0 0.0 0.00 0.00 0.00 65 1015.3
20260905170024 90 267 0.9 0.9 0.00 0.00 0.00 66 1015.4
20260905165519 91 243 0.9 0.9 0.00 0.00 0.00 65 1015.6
20260905165014 91 255 1.7 2.6 0.00 0.00 0.00 66 1015.8
20260905164508 92 231 0.9 1.7 0.00 0.00 0.00 66 1016.0
20260905164003 92 219 0.0 0.0 0.00 0.00 0.00 66 1015.8
20260905163459 92 201 0.0 0.0 0.00 0.00 0.00 64 1015.7
20260905162955 93 212 0.9 0.9 0.00 0.00 0.00 64 1015.7
20260905162450 93 199 0.9 1.7 0.00 0.00 0.00 64 1015.8
20260905161945 95 213 0.9 0.9 0.00 0.00 0.00 63 1015.7
20260905161444 94 122 0.0 0.9 0.00 0.00 0.00 61 1015.9
20260905160942 92 187 0.0 0.9 0.00 0.00 0.00 62 1015.7
20260905160436 92 193 0.0 0.0 0.00 0.00 0.00 66 1015.8
20260905155936 91 213 0.0 0.0 0.00 0.00 0.00 68 1015.8
20260905155431 90 180 0.0 0.0 0.00 0.00 0.00 67 1016.1
20260905154930 90 232 0.9 0.9 0.00 0.00 0.00 67 1016.2
20260905154425 90 98 2.6 2.6 0.00 0.00 0.00 65 1016.1
20260905153921 89 210 0.9 0.9 0.00 0.00 0.00 67 1016.1
20260905153417 90 231 0.9 1.7 0.00 0.00 0.00 68 1016.2
20260905152916 89 183 0.9 0.9 0.00 0.00 0.00 70 1016.0
20260905152415 88 220 0.9 0.9 0.00 0.00 0.00 74 1016.0
20260905151911 87 237 0.9 0.9 0.00 0.00 0.00 72 1015.7
20260905151406 86 243 0.0 0.0 0.00 0.00 0.00 75 1015.8
20260905150901 85 262 0.0 0.0 0.00 0.00 0.00 78 1015.8
20260905150401 85 189 0.0 0.0 0.00 0.00 0.00 81 1016.1
20260905145858 84 220 0.0 0.0 0.00 0.00 0.00 78 1015.8
20260905145358 84 282 0.0 0.0 0.00 0.00 0.00 82 1016.2
20260905144852 84 272 0.0 0.0 0.00 0.00 0.00 80 1016.0
20260905144348 84 242 0.0 0.0 0.00 0.00 0.00 79 1016.1
20260905143846 84 250 0.9 0.9 0.00 0.00 0.00 80 1015.9
20260905143340 83 251 0.9 0.9 0.00 0.00 0.00 81 1016.1
20260905142839 82 241 0.0 0.0 0.00 0.00 0.00 82 1016.2
20260905142332 82 265 0.0 0.0 0.00 0.00 0.00 85 1016.3
20260905141829 81 252 0.0 0.0 0.00 0.00 0.00 86 1016.1
20260905141324 81 235 0.0 0.9 0.00 0.00 0.00 88 1015.9
20260905140820 80 246 0.0 0.0 0.00 0.00 0.00 89 1016.0
20260905140319 79 243 0.0 0.0 0.00 0.00 0.00 90 1016.1
20260905135818 79 235 0.0 0.0 0.00 0.00 0.00 91 1016.0
20260905135314 78 232 0.0 0.0 0.00 0.00 0.00 92 1016.0
20260905134809 78 236 0.0 0.0 0.00 0.00 0.00 92 1015.9
20260905134303 77 244 0.0 0.0 0.00 0.00 0.00 94 1016.1
20260905133802 76 249 0.0 0.0 0.00 0.00 0.00 95 1016.1
20260905133258 76 238 0.0 0.0 0.00 0.00 0.00 96 1016.1
20260905132757 75 216 0.0 0.0 0.00 0.00 0.00 97 1016.1
20260905132253 75 248 0.0 0.0 0.00 0.00 0.00 97 1016.2
20260905131748 74 230 0.0 0.0 0.00 0.00 0.00 98 1016.4
20260905131243 74 236 0.0 0.0 0.00 0.00 0.00 98 1016.1
20260905130738 73 244 0.0 0.0 0.00 0.00 0.00 99 1016.7
20260905130237 73 239 0.0 0.0 0.00 0.00 0.00 99 1016.2
20260905125733 72 234 0.0 0.0 0.00 0.00 0.00 99 1016.3
20260905125228 72 248 0.0 0.0 0.00 0.00 0.00 99 1016.2
20260905124724 72 249 0.0 0.0 0.00 0.00 0.00 99 1016.4
20260905124220 71 264 0.0 0.0 0.00 0.00 0.00 99 1016.3
20260905123714 71 254 0.0 0.0 0.00 0.00 0.00 99 1016.3
20260905123212 71 249 0.0 0.0 0.00 0.00 0.00 99 1016.3
20260905122711 71 214 0.0 0.0 0.00 0.00 0.00 99 1016.4
20260905122206 71 262 0.0 0.0 0.00 0.00 0.00 99 1016.2
20260905121700 70 259 0.0 0.9 0.00 0.00 0.00 99 1016.3
20260905121156 70 263 0.0 0.0 0.00 0.00 0.00 99 1016.6
20260905120655 70 246 0.0 0.0 0.00 0.00 0.00 99 1016.2
20260905120150 70 263 0.0 0.0 0.00 0.00 0.00 99 1016.3
20260905115650 70 252 0.0 0.0 0.00 0.00 0.00 99 1016.3
20260905115145 70 249 0.0 0.0 0.00 0.00 0.00 99 1016.4
20260905114645 70 250 0.0 0.0 0.00 0.00 0.00 99 1016.3
20260905114143 69 244 0.0 0.0 0.00 0.00 0.00 99 1016.0
20260905113637 69 248 0.0 0.0 0.00 0.00 0.00 99 1016.3
20260905113133 69 264 0.0 0.0 0.00 0.00 0.00 99 1016.2
20260905112627 69 264 0.0 0.0 0.00 0.00 0.00 99 1016.0
20260905112124 70 264 0.0 0.0 0.00 0.00 0.00 99 1015.8
20260905111618 70 262 0.0 0.0 0.00 0.00 0.00 99 1015.7
20260905111117 70 264 0.9 0.9 0.00 0.00 0.00 99 1015.7
20260905110616 69 254 0.0 0.0 0.00 0.00 0.00 99 1015.6
20260905110112 69 264 0.0 0.9 0.00 0.00 0.00 99 1015.8
20260905105612 69 263 0.0 0.0 0.00 0.00 0.00 99 1015.6
20260905105111 69 264 0.0 0.9 0.00 0.00 0.00 99 1015.7
20260905104606 69 250 0.0 0.0 0.00 0.00 0.00 99 1015.6
20260905104101 69 250 0.0 0.0 0.00 0.00 0.00 99 1015.6
20260905103556 69 250 0.0 0.9 0.00 0.00 0.00 99 1015.7
20260905103053 69 250 0.0 0.9 0.00 0.00 0.00 99 1015.7
20260905102548 69 264 0.0 0.0 0.00 0.00 0.00 99 1015.5
20260905102045 69 263 0.9 0.9 0.00 0.00 0.00 99 1015.4
20260905101543 70 256 0.0 0.0 0.00 0.00 0.00 99 1015.5
20260905101041 69 252 0.0 0.0 0.00 0.00 0.00 99 1015.5
20260905100538 69 264 0.0 0.0 0.00 0.00 0.00 99 1015.7
20260905100037 69 264 0.0 0.0 0.00 0.00 0.00 99 1015.7
20260905095532 69 264 0.0 0.0 0.00 0.00 0.00 99 1015.6
20260905095027 70 264 0.0 0.0 0.00 0.00 0.00 99 1015.4
20260905094522 70 264 0.0 0.0 0.00 0.00 0.00 99 1015.4
20260905094021 70 264 0.0 0.0 0.00 0.00 0.00 99 1015.3
20260905093516 70 264 0.0 0.0 0.00 0.00 0.00 99 1015.3
20260905093013 70 264 0.0 0.0 0.00 0.00 0.00 99 1015.4
20260905092513 70 264 0.0 0.0 0.00 0.00 0.00 99 1015.2
20260905092008 70 264 0.0 0.0 0.00 0.00 0.00 99 1015.3
20260905091502 70 264 0.0 0.0 0.00 0.00 0.00 99 1015.4
20260905090956 70 264 0.0 0.0 0.00 0.00 0.00 99 1015.4
20260905090451 70 264 0.0 0.0 0.00 0.00 0.00 99 1015.5
20260905085950 70 264 0.0 0.0 0.00 0.00 0.00 99 1015.3
20260905085450 70 264 0.0 0.0 0.00 0.00 0.00 99 1015.5
20260905084946 70 251 0.0 0.0 0.00 0.00 0.00 99 1015.6
20260905084445 70 255 0.0 0.0 0.00 0.00 0.00 99 1015.6
20260905083939 70 245 0.0 0.0 0.00 0.00 0.00 99 1015.8
20260905083436 70 264 0.0 0.0 0.00 0.00 0.00 99 1015.7